This demonstration page uses our WeatherBlox Daily Observations layout. Learn more.

Hourly Observations for June 28, 2015

Temp ( °F °C ) Dew Point ( °F °C ) Humidity (%) Winds ( mph kmh ) Pressure ( in mb ) Visibility ( mi km ) Precip ( " mm )
12:15 am 00:15 Clear 69 20.4 56 13.5 65 65 SSW 7 11 30 1016 10 16.0934 0 0
12:35 am 00:35 Clear 68 19.8 56 13.2 66 66 SSW 7 11 29.94 1014 10 16.0934 0 0
12:55 am 00:55 Clear 67 19.3 56 13.4 69 69 SSW 6 9 29.97 1015 10 16.0934 0 0
1:15 am 01:15 Clear 68 20 56 13.2 65 65 SSW 6 9 29.94 1014 10 16.0934 0 0
1:35 am 01:35 Clear 67 19.4 56 13.2 68 68 SSW 6 9 29.97 1015 10 16.0934 0 0
1:55 am 01:55 Clear 66 19.1 55 13 68 68 SW 6 9 29.97 1015 10 16.0934 0 0
2:15 am 02:15 Clear 66 19.1 55 12.5 66 66 SW 7 11 29.94 1014 10 16.0934 0 0
2:35 am 02:35 Clear 67 19.3 54 12.1 63 63 SW 9 15 29.94 1014 10 16.0934 0 0
2:55 am 02:55 Clear 66 18.8 54 12.1 65 65 SW 8 13 29.94 1014 10 16.0934 0 0
3:15 am 03:15 Clear 68 20.1 53 11.5 58 58 SW 12 19 29.91 1013 10 16.0934 0 0
3:35 am 03:35 Clear 69 20.8 52 11 54 54 WSW 9 15 29.91 1013 10 16.0934 0 0
3:55 am 03:55 Clear 69 20.5 52 11.1 55 55 WSW 8 13 29.91 1013 10 16.0934 0 0
4:15 am 04:15 Clear 69 20.5 52 11 55 55 WSW 8 13 29.88 1012 10 16.0934 0 0
4:35 am 04:35 Clear 68 20.1 52 11 56 56 W 8 13 29.88 1012 10 16.0934 0 0
4:55 am 04:55 Clear 67 19.4 52 11.1 59 59 W 9 15 29.91 1013 10 16.0934 0 0
5:15 am 05:15 Clear 67 19.3 52 11.2 60 60 W 8 13 29.91 1013 10 16.0934 0 0
5:35 am 05:35 Clear 65 18.2 53 11.5 65 65 W 7 11 29.91 1013 10 16.0934 0 0
5:55 am 05:55 Clear 65 18.3 53 11.7 66 66 W 8 13 29.91 1013 10 16.0934 0 0
6:15 am 06:15 Sunny 64 18 53 11.7 67 67 NW 10 17 29.94 1014 10 16.0934 0 0
6:35 am 06:35 Sunny 64 17.5 54 12.2 71 71 NW 5 7 29.94 1014 10 16.0934 0 0
6:55 am 06:55 Sunny 64 17.7 55 13 74 74 WNW 5 7 29.94 1014 10 16.0934 0 0
7:15 am 07:15 Sunny 65 18.5 56 13.2 71 71 WNW 5 7 29.94 1014 10 16.0934 0 0
7:35 am 07:35 Sunny 67 19.6 57 13.9 70 70 NW 5 7 29.91 1013 10 16.0934 0 0
7:55 am 07:55 Sunny 70 21.2 58 14.2 64 64 NW 8 13 29.91 1013 10 16.0934 0 0
8:15 am 08:15 Sunny 72 22.1 58 14.6 63 63 NW 8 13 29.91 1013 10 16.0934 0 0
8:35 am 08:35 Sunny 73 23 59 14.9 60 60 NNW 6 9 29.91 1013 10 16.0934 0 0
8:55 am 08:55 Sunny 75 23.7 59 14.8 58 58 NNW 6 9 29.88 1012 10 16.0934 0 0
9:15 am 09:15 Sunny 76 24.5 60 15.3 57 57 NNW 8 13 29.88 1012 10 16.0934 0 0
9:35 am 09:35 Sunny 77 25.1 60 15.7 56 56 NNW 6 9 29.91 1013 10 16.0934 0 0
9:55 am 09:55 Sunny 78 25.5 60 15.4 54 54 NNW 5 7 29.91 1013 10 16.0934 0 0
10:15 am 10:15 Sunny 80 26.7 61 16.1 52 52 N 8 13 29.91 1013 10 16.0934 0 0
10:35 am 10:35 Sunny 81 27 60 15.4 49 49 N 8 13 29.91 1013 10 16.0934 0 0
10:55 am 10:55 Sunny 82 27.5 58 14.6 45 45 N 9 15 29.88 1012 10 16.0934 0 0
11:15 am 11:15 Sunny 82 28 57 13.8 42 42 N 10 17 29.88 1012 10 16.0934 0 0
11:35 am 11:35 Sunny 83 28.2 58 14.2 42 42 N 9 15 29.88 1012 10 16.0934 0 0
11:55 am 11:55 Sunny 83 28.6 54 12.3 37 37 NNW 10 17 29.88 1012 10 16.0934 0 0
12:15 pm 12:15 Sunny 84 28.7 54 12.1 36 36 N 8 13 29.88 1012 10 16.0934 0 0
12:35 pm 12:35 Sunny 85 29.4 54 12.1 34 34 N 10 17 29.88 1012 10 16.0934 0 0
12:55 pm 12:55 Sunny 85 29.5 53 11.7 33 33 N 12 19 29.85 1011 10 16.0934 0 0
1:15 pm 13:15 Sunny 85 29.6 53 11.7 33 33 N 13 20 29.85 1011 10 16.0934 0 0
1:35 pm 13:35 Sunny 86 29.8 55 12.5 34 34 N 7 11 29.85 1011 10 16.0934 0 0
1:55 pm 13:55 Sunny 86 30 55 12.8 35 35 N 13 20 29.85 1011 10 16.0934 0 0
2:15 pm 14:15 Sunny 87 30.5 55 12.8 34 34 N 9 15 29.83 1010 10 16.0934 0 0
2:35 pm 14:35 Sunny 87 30.4 54 12.2 33 33 N 12 19 29.85 1011 10 16.0934 0 0
2:55 pm 14:55 Sunny 87 30.6 55 12.5 33 33 NNW 9 15 29.83 1010 10 16.0934 0 0
3:15 pm 15:15 Sunny 88 31 55 12.8 33 33 NNW 10 17 29.83 1010 10 16.0934 0 0
3:35 pm 15:35 Sunny 88 31 53 11.4 30 30 N 13 20 29.83 1010 10 16.0934 0 0
3:55 pm 15:55 Sunny 88 31.1 53 11.5 30 30 N 15 24 29.83 1010 10 16.0934 0 0
4:15 pm 16:15 Sunny 88 31 52 11.1 29 29 NNW 16 26 29.83 1010 10 16.0934 0 0
4:35 pm 16:35 Sunny 88 31.1 51 10.5 28 28 N 15 24 29.83 1010 10 16.0934 0 0
4:55 pm 16:55 Sunny 87 30.8 53 11.8 31 31 NNW 14 22 29.8 1009 10 16.0934 0 0
5:15 pm 17:15 Sunny 88 30.9 51 10.8 29 29 N 15 24 29.8 1009 10 16.0934 0 0
5:35 pm 17:35 Sunny 85 29.7 52 11 31 31 N 17 28 29.83 1010 10 16.0934 0 0
5:55 pm 17:55 Sunny 86 30 51 10.8 30 30 N 12 19 29.83 1010 10 16.0934 0 0
6:15 pm 18:15 Sunny 86 30.1 51 10.7 30 30 N 13 20 29.83 1010 10 16.0934 0 0
6:35 pm 18:35 Sunny 86 30 51 10.5 30 30 N 12 19 29.83 1010 10 16.0934 0 0
6:55 pm 18:55 Sunny 85 29.5 51 10.7 31 31 N 10 17 29.83 1010 10 16.0934 0 0
7:15 pm 19:15 Sunny 82 28 52 11.1 35 35 NNE 10 17 29.83 1010 10 16.0934 0 0
8:55 pm 20:55 Sunny 74 23.5 57 14.1 56 56 N 6 9 29.88 1012 10 16.0934 0 0
9:15 pm 21:15 Clear 71 21.9 58 14.2 62 62 N 5 7 29.91 1013 10 16.0934 0 0
9:35 pm 21:35 Clear 71 21.7 57 13.7 61 61 NNE 5 7 29.91 1013 10 16.0934 0 0
9:55 pm 21:55 Clear 69 20.3 57 13.8 66 66 N 5 7 29.91 1013 10 16.0934 0 0
10:15 pm 22:15 Clear 67 19.3 56 13.4 69 69 NE 5 7 29.94 1014 10 16.0934 0 0
10:35 pm 22:35 Clear 67 19.2 56 13.5 70 70 ENE 9 15 29.94 1014 10 16.0934 0 0
10:55 pm 22:55 Clear 65 18.6 56 13.3 71 71 ENE 7 11 29.97 1015 10 16.0934 0 0
11:15 pm 23:15 Clear 65 18.3 56 13.1 72 72 ENE 5 7 29.97 1015 10 16.0934 0 0
11:35 pm 23:35 Clear 64 17.9 56 13.1 74 74 ENE 6 9 29.97 1015 10 16.0934 0 0
11:55 pm 23:55 Clear 63 17.2 55 12.9 76 76 E 6 9 29.97 1015 10 16.0934 0 0

Powered by AerisWeather